Regional Weather Roundup
Issued by NWS

Home | Current Version | Previous Version | Graphics & Text | Print | Product List | Glossary On
Versions: 1 2 3 4 5 6 7 8 9 10 11 12 13 14 15 16 17 18 19 20 21 22 23 24 25 26 27 28 29 30 31 32 33 34 35 36 37 38 39 40 41 42 43 44 45 46 47 48 49 50
000
ASUS43 KDTX 180510
RWRMI
MICHIGAN HOURLY REGIONAL WEATHER ROUNDUP
NATIONAL WEATHER SERVICE DETROIT/PONTIAC MI
100 AM EDT FRI APR 18 2014

NOTE: "FAIR" INDICATES FEW OR NO CLOUDS BELOW 12,000 FEET WITH NO
SIGNIFICANT WEATHER AND/OR OBSTRUCTION TO VISIBILITY.

MIZ047>049-052>055-059>063-066>070-074>076-081>083-180600-
SOUTHEAST LOWER MICHIGAN

CITY           SKY/WX    TMP DP  RH WIND       PRES   REMARKS
ADRIAN         CLOUDY    51  33  50 SW3       30.24F
ALMA           CLOUDY    48  38  68 W3        30.24S
ANN ARBOR      CLOUDY    45  36  70 CALM      30.23F
BAD AXE        CLOUDY    47  37  68 S5        30.23S
CARO           MOCLDY    50  38  63 W3        30.22S
DETROIT CITY   MOCLDY    49  35  58 SE3       30.25F
DETROIT        CLOUDY    50  39  66 CALM      30.24F
FLINT          MOCLDY    49  35  58 CALM      30.24S
GROSSE ILE     CLOUDY    48  41  76 S3        30.23F
HILLSDALE      CLOUDY    55  34  46 W3        30.23S
HOWELL         CLOUDY    52  33  48 CALM      30.23S

CITY           SKY/WX    TMP DP  RH WIND       PRES   REMARKS
JACKSON        CLOUDY    52  35  52 CALM      30.23F
LAMBERTVILLE   CLOUDY    50  36  57 S5        30.25S
LANSING        CLOUDY    48  36  63 CALM      30.24S
LAPEER         FAIR      48  36  64 CALM      30.23S
MASON          CLOUDY    46  38  72 CALM      30.23S
MONROE         CLOUDY    48  37  66 S3        30.23S
MT. CLEMENS    CLOUDY    42  37  82 SE5       30.23F
PONTIAC        CLOUDY    50  35  56 CALM      30.23F
PORT HOPE        N/A     50  36  58 VRB3      30.20F
PORT HURON     CLOUDY    45  34  65 S5        30.24F
TRI CITIES     CLOUDY    50  38  63 W6        30.24S
TROY           CLOUDY    51  36  55 CALM      30.25S
SAGINAW HB     CLOUDY    52  37  58 W3        30.23S
YPSILANTI      CLOUDY    52  35  52 S3        30.24S
$$
MIZ043>046-050>051-056>058-064>065-071>073-077>080-180600-
SOUTHWEST LOWER MICHIGAN

CITY           SKY/WX    TMP DP  RH WIND       PRES   REMARKS
BATTLE CREEK   CLOUDY    49  38  65 CALM      30.24S
BENTON HARBOR  CLOUDY    47  37  68 CALM      30.25R
BIG RAPIDS     MOCLDY    41  36  82 CALM      30.23R
COLDWATER      CLOUDY    49  38  65 CALM      30.24S
FREMONT        FAIR      42  37  81 CALM      30.23S
HOLLAND        CLOUDY    44  38  79 CALM      30.25S
GRAND RAPIDS   CLOUDY    49  37  63 W3        30.24S
IONIA          MOCLDY    48  38  67 W3        30.23S
KALAMAZOO      CLOUDY    50  38  63 N5        30.24S
LUDINGTON      CLOUDY    37  35  92 CALM      30.26R
MARSHALL       CLOUDY    46  39  76 CALM      30.23S
MOUNT PLEASANT CLOUDY    46  39  76 W3        30.23S
MUSKEGON       MOCLDY    42  36  79 CALM      30.25R
SOUTH HAVEN    CLOUDY    45  37  75 CALM      30.25S
$$
MIZ016>042-180600-
NORTHERN LOWER MICHIGAN

CITY           SKY/WX    TMP DP  RH WIND       PRES   REMARKS
ALPENA         CLOUDY    35  31  85 W3        30.21F
BEAVER ISLAND  PTCLDY    30  29  96 CALM      30.24S
BELLAIRE       CLOUDY    34  32  92 CALM      30.26R
CADILLAC       CLOUDY    36  33  90 NW6       30.22R WCI  31
CHARLEVOIX     CLOUDY    34  31  88 W6        30.28S WCI  29
FRANKFORT      CLOUDY    37  33  85 CALM      30.26S
GAYLORD        CLOUDY    34  30  85 CALM      30.22R
GRAYLING       CLOUDY    35  30  80 W6        30.24R WCI  30
HARBOR SPRINGS CLOUDY    32  31  96 CALM      30.24R FOG
HOUGHTON LAKE  CLOUDY    39  32  76 NW3       30.22S
MANISTEE       CLOUDY    39  34  81 CALM      30.26S
OSCODA         MOCLDY    41  32  71 CALM      30.21S
PELLSTON       CLOUDY    34  29  82 W7        30.24S WCI  28
ROGERS CITY    CLOUDY    38  32  79 W7        30.22S WCI  33
TRAVERSE CITY  CLOUDY    38  32  79 CALM      30.25R
$$
MIZ007>008-015-180600-
EASTERN UPPER MICHIGAN

CITY           SKY/WX    TMP DP  RH WIND       PRES   REMARKS
KINROSS        PTCLDY    32  30  93 W6        30.22R WCI  26
MACKINAC ISLAN CLOUDY    32  31  96 W6        30.22S WCI  26
NEWBERRY       CLEAR     29  28  94 W5        30.22R WCI  24
S. S. MARIE    PTCLDY    31  25  78 SW3       30.21S
MUNISING         N/A     36  31  82 NW5       30.25R WCI  32
$$
MIZ004>006-011>014-085-180600-
CENTRAL UPPER MICHIGAN

CITY           SKY/WX    TMP DP  RH WIND       PRES   REMARKS
MANISTIQUE     CLOUDY    34  32  92 W5        30.24R WCI  30
ESCANABA       CLOUDY    36  30  80 W7        30.26R WCI  30
MENOMINEE      CLOUDY    36  30  80 CALM      30.27S
SAWYER-GWINN   CLOUDY    33  28  85 W7        30.24S WCI  26
$$
MIZ001>003-009>011-084-180600-
WESTERN UPPER MICHIGAN

CITY           SKY/WX    TMP DP  RH WIND       PRES   REMARKS
IRON MOUNTAIN  CLOUDY    34  25  69 NW12      30.25S WCI  25
HOUGHTON       CLOUDY    30  27  88 W15       30.24R WCI  19
COPPER HARBOR    N/A     32  30  92 N12       30.24R WCI  23
IRONWOOD       CLOUDY    32  25  74 W6        30.26R WCI  26
$$

ABBREVIATIONS USED IN REMARKS
   TC - TEMPERATURE IN CELSIUS
  WCI - WIND CHILL INDEX
   HX - HEAT INDEX
  VSB - VISIBILITY




USA.gov is the U.S. government's official web portal to all federal, state and local government web resources and services.